Back to catalog

FENGYUN 1C DEB

LostPO
NORAD 31935·DEBRIS·🇨🇳 China

Launched May 10, 1999 from Taiyuan Satellite Launch Center

Loading…

Next Passes (next 24 hours)

TLE

StaleSource: Space-Track

Epoch: Oct 10, 2022, 07:19 UTC

1 31935U 99025CML 22283.30510883  .00006126  00000-0  28217-2 0  9998
2 31935  99.7311 106.6558 0067798 214.0246 145.6570 14.20273398789360

Track FENGYUN 1C DEB in real time with AllMySat

Download on the App Store